Time,TemperatureF,DewpointF,PressureIn,WindDirection,WindDirectionDegrees,WindSpeedMPH,WindSpeedGustMPH,Humidity,HourlyPrecipIn,Conditions,Clouds,dailyrainin,SoftwareType,DateUTC
2013-06-02 00:02:00,69.3,39.0,28.61,South,179,0.0,0.0,32,0.00,,,-99.99,wx200d/1.3,2013-06-02 04:02:00,
2013-06-02 00:04:00,69.3,39.0,28.61,WSW,247,2.7,4.9,32,0.00,,,-99.99,wx200d/1.3,2013-06-02 04:04:00,
2013-06-02 00:06:00,69.3,39.0,28.61,SSW,203,0.0,3.6,32,0.00,,,-99.99,wx200d/1.3,2013-06-02 04:06:00,
2013-06-02 00:12:00,69.1,39.0,28.61,South,186,2.7,2.7,32,0.00,,,-99.99,wx200d/1.3,2013-06-02 04:12:00,
2013-06-02 00:16:00,69.1,39.0,28.61,South,183,0.0,0.0,32,0.00,,,-99.99,wx200d/1.3,2013-06-02 04:16:00,
2013-06-02 00:22:00,69.1,39.0,28.61,South,176,3.1,0.0,32,0.00,,,-99.99,wx200d/1.3,2013-06-02 04:22:00,
2013-06-02 00:28:00,69.1,39.0,28.61,South,178,2.2,0.0,32,0.00,,,-99.99,wx200d/1.3,2013-06-02 04:28:00,
2013-06-02 00:32:00,68.9,39.0,28.61,West,260,0.0,3.6,32,0.00,,,-99.99,wx200d/1.3,2013-06-02 04:32:00,
2013-06-02 00:38:00,68.9,39.0,28.61,West,276,0.0,0.0,32,0.00,,,-99.99,wx200d/1.3,2013-06-02 04:38:00,
2013-06-02 00:44:00,68.7,37.0,28.61,WSW,242,2.7,2.7,33,0.00,,,-99.99,wx200d/1.3,2013-06-02 04:44:00,
2013-06-02 00:50:00,68.7,37.0,28.61,SSW,194,0.0,0.0,33,0.00,,,-99.99,wx200d/1.3,2013-06-02 04:50:00,
2013-06-02 00:56:00,68.7,37.0,28.61,WSW,244,0.0,0.0,33,0.00,,,-99.99,wx200d/1.3,2013-06-02 04:56:00,
2013-06-02 01:02:00,68.5,37.0,28.61,SSW,198,0.0,0.0,33,0.00,,,-99.99,wx200d/1.3,2013-06-02 05:02:00,
2013-06-02 01:08:00,68.5,37.0,28.61,WSW,257,0.0,2.7,33,0.00,,,-99.99,wx200d/1.3,2013-06-02 05:08:00,
2013-06-02 01:14:00,68.4,37.0,28.61,SW,222,0.0,0.0,33,0.00,,,-99.99,wx200d/1.3,2013-06-02 05:14:00,
2013-06-02 01:20:00,68.4,37.0,28.61,South,184,0.0,2.2,33,0.00,,,-99.99,wx200d/1.3,2013-06-02 05:20:00,
2013-06-02 01:26:00,68.2,37.0,28.61,SSW,193,0.0,0.0,33,0.00,,,-99.99,wx200d/1.3,2013-06-02 05:26:00,
2013-06-02 01:32:00,68.2,37.0,28.61,South,180,0.0,3.1,33,0.00,,,-99.99,wx200d/1.3,2013-06-02 05:32:00,
2013-06-02 01:38:00,68.0,37.0,28.61,SSW,199,0.0,2.7,33,0.00,,,-99.99,wx200d/1.3,2013-06-02 05:38:00,
2013-06-02 01:44:00,68.0,37.0,28.61,SSW,201,0.0,0.0,33,0.00,,,-99.99,wx200d/1.3,2013-06-02 05:44:00,
2013-06-02 01:50:00,67.8,39.0,28.61,SSE,160,0.0,0.0,34,0.00,,,-99.99,wx200d/1.3,2013-06-02 05:50:00,
2013-06-02 01:56:00,67.8,39.0,28.61,South,171,0.0,0.0,34,0.00,,,-99.99,wx200d/1.3,2013-06-02 05:56:00,
2013-06-02 02:02:00,67.6,39.0,28.61,SSW,192,0.0,0.0,34,0.00,,,-99.99,wx200d/1.3,2013-06-02 06:02:00,
2013-06-02 02:08:00,67.6,39.0,28.61,South,183,0.0,2.7,34,0.00,,,-99.99,wx200d/1.3,2013-06-02 06:08:00,
2013-06-02 02:14:00,67.6,39.0,28.61,SSW,196,0.0,2.7,34,0.00,,,-99.99,wx200d/1.3,2013-06-02 06:14:00,
2013-06-02 02:20:00,67.6,39.0,28.61,South,185,0.0,0.0,34,0.00,,,-99.99,wx200d/1.3,2013-06-02 06:20:00,
2013-06-02 02:26:00,67.5,39.0,28.61,SSW,203,0.0,2.7,34,0.00,,,-99.99,wx200d/1.3,2013-06-02 06:26:00,
2013-06-02 02:32:00,67.5,39.0,28.61,West,269,0.0,0.0,34,0.00,,,-99.99,wx200d/1.3,2013-06-02 06:32:00,
2013-06-02 02:38:00,67.5,39.0,28.61,SSW,202,0.0,0.0,34,0.00,,,-99.99,wx200d/1.3,2013-06-02 06:38:00,
2013-06-02 02:44:00,67.5,39.0,28.61,West,259,0.0,0.0,34,0.00,,,-99.99,wx200d/1.3,2013-06-02 06:44:00,
2013-06-02 02:50:00,67.5,39.0,28.61,SSW,200,0.0,0.0,34,0.00,,,-99.99,wx200d/1.3,2013-06-02 06:50:00,
2013-06-02 02:56:00,67.5,39.0,28.61,South,173,0.0,0.0,34,0.00,,,-99.99,wx200d/1.3,2013-06-02 06:56:00,
2013-06-02 03:02:00,67.3,39.0,28.61,WSW,239,0.0,0.0,34,0.00,,,-99.99,wx200d/1.3,2013-06-02 07:02:00,
2013-06-02 03:08:00,67.1,39.0,28.61,WSW,238,0.0,0.0,34,0.00,,,-99.99,wx200d/1.3,2013-06-02 07:08:00,
2013-06-02 03:14:00,67.1,39.0,28.61,WSW,238,0.0,0.0,34,0.00,,,-99.99,wx200d/1.3,2013-06-02 07:14:00,
2013-06-02 03:20:00,66.9,37.0,28.61,SW,234,0.0,0.0,34,0.00,,,-99.99,wx200d/1.3,2013-06-02 07:20:00,
2013-06-02 03:26:00,66.7,37.0,28.61,SW,228,0.0,0.0,35,0.00,,,-99.99,wx200d/1.3,2013-06-02 07:26:00,
2013-06-02 03:32:00,66.7,37.0,28.61,SSW,203,0.0,2.7,35,0.00,,,-99.99,wx200d/1.3,2013-06-02 07:32:00,
2013-06-02 03:38:00,66.7,37.0,28.61,WSW,237,0.0,0.0,35,0.00,,,-99.99,wx200d/1.3,2013-06-02 07:38:00,
2013-06-02 03:44:00,66.7,37.0,28.61,SW,220,0.0,2.2,35,0.00,,,-99.99,wx200d/1.3,2013-06-02 07:44:00,
2013-06-02 03:50:00,66.6,39.0,28.61,SW,222,0.0,0.0,36,0.00,,,-99.99,wx200d/1.3,2013-06-02 07:50:00,
2013-06-02 03:56:00,66.6,39.0,28.61,South,171,0.0,0.0,36,0.00,,,-99.99,wx200d/1.3,2013-06-02 07:56:00,
2013-06-02 04:02:00,66.6,39.0,28.61,SSW,206,0.0,0.0,36,0.00,,,-99.99,wx200d/1.3,2013-06-02 08:02:00,
2013-06-02 04:08:00,66.6,39.0,28.61,SSW,213,0.0,0.0,36,0.00,,,-99.99,wx200d/1.3,2013-06-02 08:08:00,
2013-06-02 04:14:00,66.6,39.0,28.61,WSW,248,0.0,0.0,36,0.00,,,-99.99,wx200d/1.3,2013-06-02 08:14:00,
2013-06-02 04:20:00,66.6,39.0,28.61,SSW,199,0.0,2.2,37,0.00,,,-99.99,wx200d/1.3,2013-06-02 08:20:00,
2013-06-02 04:26:00,66.4,39.0,28.61,SW,226,0.0,0.0,37,0.00,,,-99.99,wx200d/1.3,2013-06-02 08:26:00,
2013-06-02 04:32:00,66.4,39.0,28.61,South,174,0.0,0.0,37,0.00,,,-99.99,wx200d/1.3,2013-06-02 08:32:00,
2013-06-02 04:38:00,66.4,39.0,28.61,SW,232,0.0,0.0,37,0.00,,,-99.99,wx200d/1.3,2013-06-02 08:38:00,
2013-06-02 04:44:00,66.4,39.0,28.61,SSW,193,0.0,0.0,37,0.00,,,-99.99,wx200d/1.3,2013-06-02 08:44:00,
2013-06-02 04:50:00,66.4,39.0,28.61,West,271,0.0,0.0,37,0.00,,,-99.99,wx200d/1.3,2013-06-02 08:50:00,
2013-06-02 04:56:00,66.4,39.0,28.59,SSW,210,0.0,0.0,37,0.00,,,-99.99,wx200d/1.3,2013-06-02 08:56:00,
2013-06-02 05:02:00,66.4,39.0,28.59,SSE,159,0.0,0.0,37,0.00,,,-99.99,wx200d/1.3,2013-06-02 09:02:00,
2013-06-02 05:08:00,66.2,39.0,28.59,SSE,151,0.0,0.0,37,0.00,,,-99.99,wx200d/1.3,2013-06-02 09:08:00,
2013-06-02 05:14:00,66.2,39.0,28.59,South,169,0.0,0.0,37,0.00,,,-99.99,wx200d/1.3,2013-06-02 09:14:00,
2013-06-02 05:20:00,66.2,39.0,28.59,SSW,199,0.0,0.0,38,0.00,,,-99.99,wx200d/1.3,2013-06-02 09:20:00,
2013-06-02 05:26:00,66.4,39.0,28.59,SSW,195,0.0,0.0,38,0.00,,,-99.99,wx200d/1.3,2013-06-02 09:26:00,
2013-06-02 05:32:00,66.2,39.0,28.59,SSW,195,0.0,0.0,38,0.00,,,-99.99,wx200d/1.3,2013-06-02 09:32:00,
2013-06-02 05:38:00,66.2,39.0,28.59,SW,220,0.0,0.0,38,0.00,,,-99.99,wx200d/1.3,2013-06-02 09:38:00,
2013-06-02 05:44:00,65.8,39.0,28.59,SW,220,0.0,0.0,38,0.00,,,-99.99,wx200d/1.3,2013-06-02 09:44:00,
2013-06-02 05:50:00,65.8,39.0,28.59,South,178,0.0,0.0,38,0.00,,,-99.99,wx200d/1.3,2013-06-02 09:50:00,
2013-06-02 05:56:00,65.8,39.0,28.59,SSW,208,0.0,0.0,38,0.00,,,-99.99,wx200d/1.3,2013-06-02 09:56:00,
2013-06-02 06:02:00,65.8,41.0,28.59,SW,233,0.0,0.0,39,0.00,,,-99.99,wx200d/1.3,2013-06-02 10:02:00,
2013-06-02 06:08:00,65.8,41.0,28.59,SSW,210,0.0,0.0,39,0.00,,,-99.99,wx200d/1.3,2013-06-02 10:08:00,
2013-06-02 06:14:00,66.0,41.0,28.59,South,173,0.0,0.0,40,0.00,,,-99.99,wx200d/1.3,2013-06-02 10:14:00,
2013-06-02 06:20:00,66.0,41.0,28.59,SSE,166,0.0,0.0,40,0.00,,,-99.99,wx200d/1.3,2013-06-02 10:20:00,
2013-06-02 06:26:00,66.0,41.0,28.59,SSW,198,3.6,3.6,41,0.00,,,-99.99,wx200d/1.3,2013-06-02 10:26:00,
2013-06-02 06:32:00,66.2,41.0,28.59,SE,131,2.7,2.7,41,0.00,,,-99.99,wx200d/1.3,2013-06-02 10:32:00,
2013-06-02 06:38:00,66.2,41.0,28.59,WSW,240,0.0,0.0,41,0.00,,,-99.99,wx200d/1.3,2013-06-02 10:38:00,
2013-06-02 06:44:00,66.4,43.0,28.59,West,279,0.0,2.2,42,0.00,,,-99.99,wx200d/1.3,2013-06-02 10:44:00,
2013-06-02 06:50:00,66.6,43.0,28.59,SW,234,0.0,0.0,42,0.00,,,-99.99,wx200d/1.3,2013-06-02 10:50:00,
2013-06-02 06:56:00,66.7,43.0,28.59,SW,229,0.0,0.0,42,0.00,,,-99.99,wx200d/1.3,2013-06-02 10:56:00,
2013-06-02 07:02:00,66.9,43.0,28.59,SSW,209,0.0,2.7,42,0.00,,,-99.99,wx200d/1.3,2013-06-02 11:02:00,
2013-06-02 07:08:00,67.1,45.0,28.59,SE,136,0.0,0.0,42,0.00,,,-99.99,wx200d/1.3,2013-06-02 11:08:00,
2013-06-02 07:14:00,67.3,45.0,28.56,WSW,246,2.7,3.6,42,0.00,,,-99.99,wx200d/1.3,2013-06-02 11:14:00,
2013-06-02 07:20:00,67.6,43.0,28.59,SSE,164,4.0,6.3,41,0.00,,,-99.99,wx200d/1.3,2013-06-02 11:20:00,
2013-06-02 07:26:00,67.8,43.0,28.59,South,187,3.6,6.3,39,0.00,,,-99.99,wx200d/1.3,2013-06-02 11:26:00,
2013-06-02 07:32:00,68.2,41.0,28.59,SSW,210,0.0,0.0,37,0.00,,,-99.99,wx200d/1.3,2013-06-02 11:32:00,
2013-06-02 07:38:00,68.4,41.0,28.56,South,169,2.7,2.7,37,0.00,,,-99.99,wx200d/1.3,2013-06-02 11:38:00,
2013-06-02 07:44:00,68.7,39.0,28.56,SW,221,2.2,3.1,35,0.00,,,-99.99,wx200d/1.3,2013-06-02 11:44:00,
2013-06-02 07:50:00,68.9,41.0,28.56,South,171,0.0,2.7,35,0.00,,,-99.99,wx200d/1.3,2013-06-02 11:50:00,
2013-06-02 07:56:00,69.3,41.0,28.56,SSW,202,3.1,3.1,34,0.00,,,-99.99,wx200d/1.3,2013-06-02 11:56:00,
2013-06-02 08:02:00,69.4,41.0,28.56,SSW,204,0.0,0.0,34,0.00,,,-99.99,wx200d/1.3,2013-06-02 12:02:00,
2013-06-02 08:08:00,69.8,39.0,28.59,SW,214,4.5,0.0,33,0.00,,,-99.99,wx200d/1.3,2013-06-02 12:08:00,
2013-06-02 08:14:00,70.2,39.0,28.59,SSW,199,0.0,3.1,33,0.00,,,-99.99,wx200d/1.3,2013-06-02 12:14:00,
2013-06-02 08:20:00,70.5,39.0,28.59,WNW,295,3.1,0.0,32,0.00,,,-99.99,wx200d/1.3,2013-06-02 12:20:00,
2013-06-02 08:26:00,70.9,39.0,28.59,WSW,253,0.0,2.2,31,0.00,,,-99.99,wx200d/1.3,2013-06-02 12:26:00,
2013-06-02 08:32:00,71.2,37.0,28.59,South,189,0.0,5.4,28,0.00,,,-99.99,wx200d/1.3,2013-06-02 12:32:00,
2013-06-02 08:38:00,71.6,36.0,28.56,South,182,3.1,3.1,27,0.00,,,-99.99,wx200d/1.3,2013-06-02 12:38:00,
2013-06-02 08:44:00,72.1,34.0,28.56,WSW,238,4.9,6.3,24,0.00,,,-99.99,wx200d/1.3,2013-06-02 12:44:00,
2013-06-02 08:50:00,72.5,34.0,28.56,WSW,252,2.2,2.2,23,0.00,,,-99.99,wx200d/1.3,2013-06-02 12:50:00,
2013-06-02 08:56:00,72.7,32.0,28.56,SSW,200,4.0,4.0,22,0.00,,,-99.99,wx200d/1.3,2013-06-02 12:56:00,
2013-06-02 09:02:00,73.0,32.0,28.56,West,273,2.2,0.0,22,0.00,,,-99.99,wx200d/1.3,2013-06-02 13:02:00,
2013-06-02 09:08:00,73.4,32.0,28.56,SW,236,4.5,8.3,21,0.00,,,-99.99,wx200d/1.3,2013-06-02 13:08:00,
2013-06-02 09:14:00,73.8,32.0,28.56,WSW,248,2.2,2.2,21,0.00,,,-99.99,wx200d/1.3,2013-06-02 13:14:00,
2013-06-02 09:20:00,74.3,32.0,28.56,SW,221,3.1,3.1,21,0.00,,,-99.99,wx200d/1.3,2013-06-02 13:20:00,
2013-06-02 09:26:00,74.8,32.0,28.56,SSE,149,4.9,5.4,21,0.00,,,-99.99,wx200d/1.3,2013-06-02 13:26:00,
2013-06-02 09:32:00,75.2,32.0,28.56,WSW,248,4.0,4.9,18,0.00,,,-99.99,wx200d/1.3,2013-06-02 13:32:00,
2013-06-02 09:38:00,75.9,32.0,28.56,NW,318,2.2,5.8,18,0.00,,,-99.99,wx200d/1.3,2013-06-02 13:38:00,
2013-06-02 09:44:00,76.5,32.0,28.56,South,178,3.6,4.0,18,0.00,,,-99.99,wx200d/1.3,2013-06-02 13:44:00,
2013-06-02 09:50:00,77.2,32.0,28.56,WSW,247,3.6,3.6,15,0.00,,,-99.99,wx200d/1.3,2013-06-02 13:50:00,
2013-06-02 09:56:00,77.7,32.0,28.56,SSW,201,5.4,5.4,15,0.00,,,-99.99,wx200d/1.3,2013-06-02 13:56:00,
2013-06-02 10:02:00,78.1,32.0,28.56,West,264,2.2,0.0,15,0.00,,,-99.99,wx200d/1.3,2013-06-02 14:02:00,
2013-06-02 10:08:00,78.6,32.0,28.56,SE,146,6.3,6.3,15,0.00,,,-99.99,wx200d/1.3,2013-06-02 14:08:00,
2013-06-02 10:14:00,79.2,32.0,28.56,WSW,255,3.6,4.0,15,0.00,,,-99.99,wx200d/1.3,2013-06-02 14:14:00,
2013-06-02 10:20:00,79.5,32.0,28.53,WSW,256,2.2,5.8,15,0.00,,,-99.99,wx200d/1.3,2013-06-02 14:20:00,
2013-06-02 10:26:00,79.9,32.0,28.53,WNW,290,3.1,3.1,15,0.00,,,-99.99,wx200d/1.3,2013-06-02 14:26:00,
2013-06-02 10:32:00,80.1,32.0,28.53,SW,229,6.7,10.1,15,0.00,,,-99.99,wx200d/1.3,2013-06-02 14:32:00,
2013-06-02 10:38:00,80.4,32.0,28.53,SSE,168,3.1,4.0,15,0.00,,,-99.99,wx200d/1.3,2013-06-02 14:38:00,
2013-06-02 10:44:00,81.0,32.0,28.53,SSW,205,2.2,4.0,14,0.00,,,-99.99,wx200d/1.3,2013-06-02 14:44:00,
2013-06-02 10:50:00,81.0,32.0,28.53,SSW,204,4.0,8.3,14,0.00,,,-99.99,wx200d/1.3,2013-06-02 14:50:00,
2013-06-02 10:56:00,81.9,32.0,28.53,SW,225,4.9,4.9,14,0.00,,,-99.99,wx200d/1.3,2013-06-02 14:56:00,
2013-06-02 11:02:00,81.9,32.0,28.53,WSW,239,2.2,5.4,14,0.00,,,-99.99,wx200d/1.3,2013-06-02 15:02:00,
2013-06-02 11:08:00,81.9,32.0,28.53,South,170,6.3,6.3,14,0.00,,,-99.99,wx200d/1.3,2013-06-02 15:08:00,
2013-06-02 11:14:00,82.9,32.0,28.53,SSW,208,2.7,2.7,14,0.00,,,-99.99,wx200d/1.3,2013-06-02 15:14:00,
2013-06-02 11:20:00,83.3,32.0,28.53,West,266,4.9,4.9,14,0.00,,,-99.99,wx200d/1.3,2013-06-02 15:20:00,
2013-06-02 11:26:00,83.3,32.0,28.53,South,188,6.7,6.7,14,0.00,,,-99.99,wx200d/1.3,2013-06-02 15:26:00,
2013-06-02 11:32:00,83.3,32.0,28.53,WSW,250,6.7,6.7,14,0.00,,,-99.99,wx200d/1.3,2013-06-02 15:32:00,
2013-06-02 11:38:00,83.3,32.0,28.53,South,173,6.3,8.1,14,0.00,,,-99.99,wx200d/1.3,2013-06-02 15:38:00,
2013-06-02 11:44:00,83.5,32.0,28.53,SW,222,6.3,6.3,14,0.00,,,-99.99,wx200d/1.3,2013-06-02 15:44:00,
2013-06-02 11:50:00,83.7,32.0,28.53,SSE,158,8.1,8.1,14,0.00,,,-99.99,wx200d/1.3,2013-06-02 15:50:00,
2013-06-02 11:56:00,84.0,32.0,28.53,SE,130,5.4,5.4,14,0.00,,,-99.99,wx200d/1.3,2013-06-02 15:56:00,
2013-06-02 12:02:00,84.2,32.0,28.53,SW,216,5.4,5.4,13,0.00,,,-99.99,wx200d/1.3,2013-06-02 16:02:00,
2013-06-02 12:08:00,84.9,32.0,28.53,SSE,159,7.6,8.7,13,0.00,,,-99.99,wx200d/1.3,2013-06-02 16:08:00,
2013-06-02 12:14:00,84.7,32.0,28.53,SSE,155,9.6,9.6,13,0.00,,,-99.99,wx200d/1.3,2013-06-02 16:14:00,
2013-06-02 12:20:00,85.1,32.0,28.53,South,173,8.7,8.7,13,0.00,,,-99.99,wx200d/1.3,2013-06-02 16:20:00,
2013-06-02 12:26:00,85.3,32.0,28.53,West,273,7.6,7.6,13,0.00,,,-99.99,wx200d/1.3,2013-06-02 16:26:00,
2013-06-02 12:32:00,85.3,32.0,28.53,WSW,240,6.3,6.7,13,0.00,,,-99.99,wx200d/1.3,2013-06-02 16:32:00,
2013-06-02 12:38:00,85.3,32.0,28.53,SSE,153,6.7,8.1,13,0.00,,,-99.99,wx200d/1.3,2013-06-02 16:38:00,
2013-06-02 12:44:00,85.1,32.0,28.53,West,276,5.4,6.7,13,0.00,,,-99.99,wx200d/1.3,2013-06-02 16:44:00,
2013-06-02 12:50:00,85.1,32.0,28.53,WSW,238,6.7,6.7,13,0.00,,,-99.99,wx200d/1.3,2013-06-02 16:50:00,
2013-06-02 12:56:00,85.1,32.0,28.53,SSE,160,7.6,7.6,13,0.00,,,-99.99,wx200d/1.3,2013-06-02 16:56:00,
2013-06-02 13:02:00,84.9,32.0,28.53,West,273,4.9,5.8,13,0.00,,,-99.99,wx200d/1.3,2013-06-02 17:02:00,
2013-06-02 13:08:00,85.1,32.0,28.50,SSW,209,4.5,5.4,13,0.00,,,-99.99,wx200d/1.3,2013-06-02 17:08:00,
2013-06-02 13:14:00,85.5,32.0,28.50,South,171,4.0,9.2,13,0.00,,,-99.99,wx200d/1.3,2013-06-02 17:14:00,
2013-06-02 13:20:00,85.5,32.0,28.50,West,272,6.3,6.3,13,0.00,,,-99.99,wx200d/1.3,2013-06-02 17:20:00,
2013-06-02 13:26:00,85.1,32.0,28.50,SSE,151,6.3,6.3,13,0.00,,,-99.99,wx200d/1.3,2013-06-02 17:26:00,
2013-06-02 13:32:00,85.5,32.0,28.50,SSW,197,3.1,3.6,13,0.00,,,-99.99,wx200d/1.3,2013-06-02 17:32:00,
2013-06-02 13:38:00,85.5,32.0,28.50,WSW,256,7.2,7.2,13,0.00,,,-99.99,wx200d/1.3,2013-06-02 17:38:00,
2013-06-02 13:44:00,85.5,32.0,28.50,South,171,8.3,8.3,13,0.00,,,-99.99,wx200d/1.3,2013-06-02 17:44:00,
2013-06-02 13:50:00,84.9,32.0,28.50,WSW,250,6.7,8.1,13,0.00,,,-99.99,wx200d/1.3,2013-06-02 17:50:00,
2013-06-02 13:56:00,85.1,32.0,28.50,West,265,4.0,5.4,13,0.00,,,-99.99,wx200d/1.3,2013-06-02 17:56:00,
2013-06-02 14:02:00,85.3,32.0,28.50,SSE,148,6.3,8.1,13,0.00,,,-99.99,wx200d/1.3,2013-06-02 18:02:00,
2013-06-02 14:08:00,85.3,32.0,28.47,SSE,150,6.3,6.3,13,0.00,,,-99.99,wx200d/1.3,2013-06-02 18:08:00,
2013-06-02 14:14:00,85.3,32.0,28.47,SSE,159,4.5,4.5,13,0.00,,,-99.99,wx200d/1.3,2013-06-02 18:14:00,
2013-06-02 14:20:00,85.5,32.0,28.47,SW,233,4.0,4.9,13,0.00,,,-99.99,wx200d/1.3,2013-06-02 18:20:00,
2013-06-02 14:26:00,85.6,32.0,28.47,WSW,245,3.6,3.6,13,0.00,,,-99.99,wx200d/1.3,2013-06-02 18:26:00,
2013-06-02 14:32:00,85.5,32.0,28.47,SSW,196,9.6,15.0,13,0.00,,,-99.99,wx200d/1.3,2013-06-02 18:32:00,
2013-06-02 14:38:00,85.1,32.0,28.47,SW,227,5.8,5.8,13,0.00,,,-99.99,wx200d/1.3,2013-06-02 18:38:00,
2013-06-02 14:44:00,85.1,32.0,28.47,SE,145,7.6,7.6,13,0.00,,,-99.99,wx200d/1.3,2013-06-02 18:44:00,
2013-06-02 14:50:00,84.7,32.0,28.47,WSW,243,8.7,8.7,13,0.00,,,-99.99,wx200d/1.3,2013-06-02 18:50:00,
2013-06-02 14:56:00,84.7,32.0,28.47,West,270,8.1,14.5,13,0.00,,,-99.99,wx200d/1.3,2013-06-02 18:56:00,
2013-06-02 15:02:00,84.6,32.0,28.47,SW,236,6.7,6.7,13,0.00,,,-99.99,wx200d/1.3,2013-06-02 19:02:00,
2013-06-02 15:08:00,84.4,32.0,28.47,WSW,250,5.4,5.4,13,0.00,,,-99.99,wx200d/1.3,2013-06-02 19:08:00,
2013-06-02 15:14:00,84.4,32.0,28.47,WSW,243,6.7,6.7,13,0.00,,,-99.99,wx200d/1.3,2013-06-02 19:14:00,
2013-06-02 15:20:00,84.6,32.0,28.47,West,279,4.0,4.0,13,0.00,,,-99.99,wx200d/1.3,2013-06-02 19:20:00,
2013-06-02 15:26:00,84.2,32.0,28.47,South,174,4.0,5.4,13,0.00,,,-99.99,wx200d/1.3,2013-06-02 19:26:00,
2013-06-02 15:32:00,83.7,32.0,28.47,SW,214,5.4,5.4,14,0.00,,,-99.99,wx200d/1.3,2013-06-02 19:32:00,
2013-06-02 15:38:00,82.9,32.0,28.47,SSW,203,6.7,6.7,14,0.00,,,-99.99,wx200d/1.3,2013-06-02 19:38:00,
2013-06-02 15:44:00,82.9,32.0,28.47,South,172,5.8,5.8,11,0.00,,,-99.99,wx200d/1.3,2013-06-02 19:44:00,
2013-06-02 15:50:00,82.9,32.0,28.47,WSW,257,8.3,8.3,14,0.00,,,-99.99,wx200d/1.3,2013-06-02 19:50:00,
2013-06-02 15:56:00,82.6,32.0,28.47,SW,226,8.7,8.7,11,0.00,,,-99.99,wx200d/1.3,2013-06-02 19:56:00,
2013-06-02 16:02:00,82.8,32.0,28.47,SW,236,8.3,8.7,11,0.00,,,-99.99,wx200d/1.3,2013-06-02 20:02:00,
2013-06-02 16:08:00,82.6,32.0,28.47,SSW,210,6.7,8.1,11,0.00,,,-99.99,wx200d/1.3,2013-06-02 20:08:00,
2013-06-02 16:14:00,82.0,32.0,28.47,SSW,210,7.2,8.7,12,0.00,,,-99.99,wx200d/1.3,2013-06-02 20:14:00,
2013-06-02 16:20:00,81.7,32.0,28.44,South,175,5.8,5.8,12,0.00,,,-99.99,wx200d/1.3,2013-06-02 20:20:00,
2013-06-02 16:26:00,81.3,32.0,28.44,South,177,8.3,8.3,12,0.00,,,-99.99,wx200d/1.3,2013-06-02 20:26:00,
2013-06-02 16:32:00,80.8,32.0,28.44,South,172,8.3,10.1,12,0.00,,,-99.99,wx200d/1.3,2013-06-02 20:32:00,
2013-06-02 16:38:00,80.1,32.0,28.47,SW,216,6.7,6.7,12,0.00,,,-99.99,wx200d/1.3,2013-06-02 20:38:00,
2013-06-02 16:44:00,79.7,32.0,28.47,South,170,5.4,8.7,12,0.00,,,-99.99,wx200d/1.3,2013-06-02 20:44:00,
2013-06-02 16:50:00,79.5,32.0,28.47,SW,224,8.1,8.1,12,0.00,,,-99.99,wx200d/1.3,2013-06-02 20:50:00,
2013-06-02 16:56:00,79.2,32.0,28.47,West,265,7.2,8.1,12,0.00,,,-99.99,wx200d/1.3,2013-06-02 20:56:00,
2013-06-02 17:02:00,78.6,32.0,28.47,West,259,5.8,5.8,13,0.00,,,-99.99,wx200d/1.3,2013-06-02 21:02:00,
2013-06-02 17:08:00,77.9,32.0,28.44,WSW,252,4.9,5.8,13,0.00,,,-99.99,wx200d/1.3,2013-06-02 21:08:00,
2013-06-02 17:14:00,77.4,32.0,28.44,WSW,245,7.2,8.3,15,0.00,,,-99.99,wx200d/1.3,2013-06-02 21:14:00,
2013-06-02 17:20:00,76.6,32.0,28.47,SSE,158,4.9,4.9,15,0.00,,,-99.99,wx200d/1.3,2013-06-02 21:20:00,
2013-06-02 17:26:00,75.9,32.0,28.47,South,176,4.9,4.9,15,0.00,,,-99.99,wx200d/1.3,2013-06-02 21:26:00,
2013-06-02 17:32:00,75.2,32.0,28.47,West,261,5.8,5.8,18,0.00,,,-99.99,wx200d/1.3,2013-06-02 21:32:00,
2013-06-02 17:38:00,74.8,32.0,28.47,SSE,165,7.2,7.2,18,0.00,,,-99.99,wx200d/1.3,2013-06-02 21:38:00,
2013-06-02 17:44:00,74.5,32.0,28.47,West,281,4.5,4.5,21,0.00,,,-99.99,wx200d/1.3,2013-06-02 21:44:00,
2013-06-02 17:50:00,74.5,32.0,28.47,South,184,4.5,4.9,21,0.00,,,-99.99,wx200d/1.3,2013-06-02 21:50:00,
2013-06-02 17:56:00,74.5,32.0,28.47,South,182,4.9,4.9,21,0.00,,,-99.99,wx200d/1.3,2013-06-02 21:56:00,
2013-06-02 18:02:00,74.3,32.0,28.47,West,277,3.1,3.1,21,0.00,,,-99.99,wx200d/1.3,2013-06-02 22:02:00,
2013-06-02 18:08:00,74.3,32.0,28.47,WNW,289,2.2,3.6,18,0.00,,,-99.99,wx200d/1.3,2013-06-02 22:08:00,
2013-06-02 18:14:00,74.3,32.0,28.47,SSW,200,3.6,4.9,18,0.00,,,-99.99,wx200d/1.3,2013-06-02 22:14:00,
2013-06-02 18:20:00,74.3,32.0,28.50,WSW,250,3.6,3.6,18,0.00,,,-99.99,wx200d/1.3,2013-06-02 22:20:00,
2013-06-02 18:26:00,73.9,32.0,28.50,SW,229,4.0,7.6,18,0.00,,,-99.99,wx200d/1.3,2013-06-02 22:26:00,
2013-06-02 18:32:00,73.6,32.0,28.50,SW,222,3.6,3.6,21,0.00,,,-99.99,wx200d/1.3,2013-06-02 22:32:00,
2013-06-02 18:38:00,72.9,32.0,28.50,SE,131,4.5,7.6,22,0.00,,,-99.99,wx200d/1.3,2013-06-02 22:38:00,
2013-06-02 18:44:00,72.5,32.0,28.50,SSW,207,4.5,4.5,22,0.00,,,-99.99,wx200d/1.3,2013-06-02 22:44:00,
2013-06-02 18:50:00,72.1,32.0,28.50,SSE,166,3.1,3.6,22,0.00,,,-99.99,wx200d/1.3,2013-06-02 22:50:00,
2013-06-02 18:56:00,72.0,32.0,28.50,SSW,205,0.0,4.9,22,0.00,,,-99.99,wx200d/1.3,2013-06-02 22:56:00,
2013-06-02 19:02:00,71.8,32.0,28.50,SW,227,0.0,2.7,22,0.00,,,-99.99,wx200d/1.3,2013-06-02 23:02:00,
2013-06-02 19:08:00,71.6,32.0,28.50,South,181,0.0,0.0,23,0.00,,,-99.99,wx200d/1.3,2013-06-02 23:08:00,
2013-06-02 19:14:00,71.6,32.0,28.50,SSW,193,0.0,3.6,23,0.00,,,-99.99,wx200d/1.3,2013-06-02 23:14:00,
2013-06-02 19:20:00,71.4,34.0,28.53,West,267,0.0,0.0,24,0.00,,,-99.99,wx200d/1.3,2013-06-02 23:20:00,
2013-06-02 19:26:00,71.4,34.0,28.53,NW,304,0.0,0.0,24,0.00,,,-99.99,wx200d/1.3,2013-06-02 23:26:00,
2013-06-02 19:32:00,71.2,34.0,28.53,NNE,17,0.0,0.0,24,0.00,,,-99.99,wx200d/1.3,2013-06-02 23:32:00,
2013-06-02 19:38:00,70.3,34.0,28.53,North,357,0.0,0.0,26,0.00,,,-99.99,wx200d/1.3,2013-06-02 23:38:00,
2013-06-02 19:44:00,69.4,36.0,28.53,North,353,0.0,0.0,28,0.00,,,-99.99,wx200d/1.3,2013-06-02 23:44:00,
2013-06-02 19:50:00,69.1,39.0,28.53,North,0,0.0,3.1,33,0.00,,,-99.99,wx200d/1.3,2013-06-02 23:50:00,
2013-06-02 19:56:00,68.9,39.0,28.53,WSW,252,0.0,0.0,33,0.00,,,-99.99,wx200d/1.3,2013-06-02 23:56:00,
2013-06-02 20:02:00,68.9,41.0,28.53,WNW,288,0.0,0.0,34,0.00,,,-99.99,wx200d/1.3,2013-06-03 00:02:00,
2013-06-02 20:08:00,68.9,41.0,28.50,WSW,258,0.0,0.0,34,0.00,,,-99.99,wx200d/1.3,2013-06-03 00:08:00,
2013-06-02 20:14:00,68.9,41.0,28.50,West,259,0.0,0.0,35,0.00,,,-99.99,wx200d/1.3,2013-06-03 00:14:00,
2013-06-02 20:20:00,68.9,41.0,28.53,SW,226,0.0,2.2,35,0.00,,,-99.99,wx200d/1.3,2013-06-03 00:20:00,
2013-06-02 20:26:00,68.9,41.0,28.53,SW,232,0.0,0.0,36,0.00,,,-99.99,wx200d/1.3,2013-06-03 00:26:00,
2013-06-02 20:32:00,68.7,41.0,28.53,SW,227,0.0,0.0,36,0.00,,,-99.99,wx200d/1.3,2013-06-03 00:32:00,
2013-06-02 20:38:00,68.7,41.0,28.53,SW,225,0.0,0.0,36,0.00,,,-99.99,wx200d/1.3,2013-06-03 00:38:00,
2013-06-02 20:44:00,68.5,41.0,28.53,WSW,244,0.0,3.1,36,0.00,,,-99.99,wx200d/1.3,2013-06-03 00:44:00,
2013-06-02 20:50:00,68.4,41.0,28.53,South,182,0.0,2.7,36,0.00,,,-99.99,wx200d/1.3,2013-06-03 00:50:00,
2013-06-02 20:56:00,68.2,41.0,28.53,WSW,244,0.0,0.0,36,0.00,,,-99.99,wx200d/1.3,2013-06-03 00:56:00,
2013-06-02 21:02:00,68.0,41.0,28.53,WSW,249,0.0,0.0,36,0.00,,,-99.99,wx200d/1.3,2013-06-03 01:02:00,
2013-06-02 21:08:00,68.0,41.0,28.53,WSW,249,0.0,0.0,36,0.00,,,-99.99,wx200d/1.3,2013-06-03 01:08:00,
2013-06-02 21:14:00,67.8,41.0,28.53,WSW,249,0.0,0.0,37,0.00,,,-99.99,wx200d/1.3,2013-06-03 01:14:00,
2013-06-02 21:20:00,67.6,41.0,28.53,WSW,246,0.0,0.0,37,0.00,,,-99.99,wx200d/1.3,2013-06-03 01:20:00,
2013-06-02 21:26:00,67.6,41.0,28.53,SW,222,0.0,0.0,37,0.00,,,-99.99,wx200d/1.3,2013-06-03 01:26:00,
2013-06-02 21:32:00,67.5,41.0,28.53,WSW,251,0.0,3.1,38,0.00,,,-99.99,wx200d/1.3,2013-06-03 01:32:00,
2013-06-02 21:38:00,67.5,43.0,28.53,SSW,194,3.6,5.8,39,0.04,,,-99.99,wx200d/1.3,2013-06-03 01:38:00,
2013-06-02 21:44:00,67.1,43.0,28.53,SE,144,3.1,4.0,40,0.04,,,-99.99,wx200d/1.3,2013-06-03 01:44:00,
2013-06-02 21:50:00,66.6,39.0,28.53,West,272,2.7,2.7,37,0.04,,,-99.99,wx200d/1.3,2013-06-03 01:50:00,
2013-06-02 21:56:00,66.0,37.0,28.53,SSE,168,3.6,0.0,35,0.04,,,-99.99,wx200d/1.3,2013-06-03 01:56:00,
2013-06-02 22:02:00,66.0,39.0,28.53,WSW,244,0.0,0.0,36,0.04,,,-99.99,wx200d/1.3,2013-06-03 02:02:00,
2013-06-02 22:08:00,66.2,39.0,28.53,SW,232,0.0,2.7,37,0.04,,,-99.99,wx200d/1.3,2013-06-03 02:08:00,
2013-06-02 22:14:00,66.2,39.0,28.53,South,172,0.0,0.0,38,0.04,,,-99.99,wx200d/1.3,2013-06-03 02:14:00,
2013-06-02 22:20:00,66.2,39.0,28.53,SSW,199,0.0,0.0,38,0.04,,,-99.99,wx200d/1.3,2013-06-03 02:20:00,
2013-06-02 22:26:00,66.4,39.0,28.53,WSW,242,0.0,0.0,38,0.04,,,-99.99,wx200d/1.3,2013-06-03 02:26:00,
2013-06-02 22:32:00,66.4,39.0,28.53,WSW,242,0.0,0.0,38,0.04,,,-99.99,wx200d/1.3,2013-06-03 02:32:00,
2013-06-02 22:38:00,66.4,39.0,28.53,WSW,242,0.0,0.0,38,0.04,,,-99.99,wx200d/1.3,2013-06-03 02:38:00,
2013-06-02 22:44:00,66.4,41.0,28.53,WSW,252,0.0,0.0,39,0.04,,,-99.99,wx200d/1.3,2013-06-03 02:44:00,
2013-06-02 22:50:00,66.4,41.0,28.53,WSW,248,0.0,0.0,40,0.04,,,-99.99,wx200d/1.3,2013-06-03 02:50:00,
2013-06-02 22:56:00,66.4,41.0,28.53,WSW,248,0.0,0.0,40,0.04,,,-99.99,wx200d/1.3,2013-06-03 02:56:00,
2013-06-02 23:02:00,66.4,41.0,28.53,WSW,247,0.0,0.0,41,0.04,,,-99.99,wx200d/1.3,2013-06-03 03:02:00,
2013-06-02 23:08:00,66.4,41.0,28.53,East,79,0.0,0.0,41,0.04,,,-99.99,wx200d/1.3,2013-06-03 03:08:00,
2013-06-02 23:14:00,66.4,43.0,28.53,SW,222,2.7,3.6,43,0.04,,,-99.99,wx200d/1.3,2013-06-03 03:14:00,
2013-06-02 23:20:00,66.4,43.0,28.56,South,179,0.0,0.0,43,0.04,,,-99.99,wx200d/1.3,2013-06-03 03:20:00,
2013-06-02 23:26:00,66.4,43.0,28.56,WSW,248,2.2,5.4,44,0.04,,,-99.99,wx200d/1.3,2013-06-03 03:26:00,
2013-06-02 23:32:00,66.2,43.0,28.56,West,264,0.0,0.0,44,0.04,,,-99.99,wx200d/1.3,2013-06-03 03:32:00,
2013-06-02 23:38:00,66.2,45.0,28.53,WSW,248,2.2,0.0,45,0.04,,,-99.99,wx200d/1.3,2013-06-03 03:38:00,
2013-06-02 23:44:00,66.0,45.0,28.53,West,274,0.0,0.0,45,0.00,,,-99.99,wx200d/1.3,2013-06-03 03:44:00,
2013-06-02 23:50:00,66.0,45.0,28.53,South,191,0.0,0.0,46,0.00,,,-99.99,wx200d/1.3,2013-06-03 03:50:00,
2013-06-02 23:56:00,66.2,45.0,28.53,WSW,247,0.0,0.0,46,0.00,,,-99.99,wx200d/1.3,2013-06-03 03:56:00,